GALAXY 13 (HORIZONS-1)

Last updated on Thu Sep 10 2026 00:02:55 GMT+0000 (Coordinated Universal Time)

1 27954U 03044A 26252.55593484 .00000112 00000+0 00000+0 0 9990 2 27954 1.6305 82.6681 0001949 86.2463 229.8224 1.00272580 47417
UTC large
Height (km)
Speed (km/s)
/
Latitude / Longitude
Inclination (degrees)
Orbital Period (minutes)
Azimuth
Elevation
Range (km)
Doppler Factor

Next 0 passes for location: London (51.5072 / 0.1276)

No passes found over London.
GALAXY 13 (HORIZONS-1)